ON7DE Weather Reports


Display with metric or nautical units.
time (UTC)temp
F
wind
direction
speed
MPH
gust
MPH
rain 1hr
in
rain 24hr
in
rain mn
in
humidity
%
barometer
mb
20260507130216 60 24 4.0 5.0 0.00 0.00 0.00 58 1016.0
20260507125403 60 352 2.0 4.0 0.00 0.00 0.00 58 1016.1
20260507124504 60 347 3.0 4.0 0.00 0.00 0.00 59 1015.9
20260507123604 60 272 2.0 3.0 0.00 0.00 0.00 62 1015.9
20260507122706 59 248 3.0 5.0 0.00 0.00 0.00 61 1015.7
20260507121805 59 233 3.0 4.0 0.00 0.00 0.00 62 1015.8
20260507120905 59 249 3.0 4.0 0.00 0.00 0.00 62 1015.8
20260507120217 59 254 3.0 4.0 0.00 0.00 0.00 62 1015.7
20260507115405 59 256 3.0 4.0 0.00 0.00 0.00 59 1015.7
20260507114716 59 268 2.0 3.0 0.00 0.00 0.00 62 1015.6
20260507113608 58 244 3.0 5.0 0.00 0.00 0.00 64 1015.9
20260507112703 59 270 2.0 3.0 0.00 0.00 0.00 61 1015.7
20260507111803 59 58 2.0 3.0 0.00 0.00 0.00 59 1015.8
20260507111115 59 87 2.0 3.0 0.00 0.00 0.00 55 1015.8
20260507110004 59 47 2.0 4.0 0.00 0.00 0.00 58 1015.8
20260507105405 59 82 3.0 5.0 0.00 0.00 0.00 59 1015.8
20260507104504 59 65 3.0 4.0 0.00 0.00 0.00 60 1015.9
20260507103604 62 92 3.0 4.0 0.00 0.00 0.00 59 1015.8
20260507102705 62 101 4.0 6.0 0.00 0.00 0.00 60 1015.9
20260507101803 62 70 3.0 4.0 0.00 0.00 0.00 62 1016.2
20260507100903 60 125 2.0 3.0 0.00 0.00 0.00 62 1016.0
20260507100004 59 82 3.0 6.0 0.00 0.00 0.00 64 1015.9
20260507095408 59 88 3.0 6.0 0.00 0.00 0.00 65 1016.0
20260507094503 59 64 3.0 5.0 0.00 0.00 0.00 68 1015.8
20260507093604 58 68 4.0 5.0 0.00 0.00 0.00 66 1015.8
20260507092704 58 57 4.0 5.0 0.00 0.00 0.00 67 1015.9
20260507092016 58 71 4.0 4.0 0.00 0.00 0.00 68 1015.8
20260507090903 58 75 2.0 4.0 0.00 0.00 0.00 71 1015.9
20260507090005 57 68 3.0 4.0 0.00 0.00 0.00 69 1016.0
20260507085405 56 73 4.0 4.0 0.00 0.00 0.00 70 1015.7
20260507084503 56 63 4.0 6.0 0.00 0.00 0.00 70 1015.6
20260507083608 55 56 4.0 6.0 0.00 0.00 0.00 71 1015.7
20260507082704 55 78 2.0 3.0 0.00 0.00 0.00 75 1015.5
20260507081803 54 62 1.0 3.0 0.00 0.00 0.00 76 1015.5
20260507081117 54 70 1.0 2.0 0.00 0.00 0.00 79 1015.7
20260507080004 53 33 1.0 3.0 0.00 0.00 0.00 81 1015.6
20260507075405 53 63 2.0 3.0 0.00 0.00 0.00 80 1015.5
20260507074505 54 6 1.0 2.0 0.00 0.00 0.00 81 1015.6
20260507073603 53 39 2.0 4.0 0.00 0.00 0.00 82 1015.5
20260507072703 53 28 1.0 2.0 0.00 0.00 0.00 83 1015.4
20260507071804 52 36 2.0 3.0 0.00 0.00 0.00 83 1015.3
20260507070905 52 50 2.0 3.0 0.00 0.00 0.00 72 1015.4
20260507070009 52 55 1.0 3.0 0.00 0.01 0.00 83 1015.2
20260507065617 52 63 1.0 3.0 0.00 0.01 0.00 83 1015.2
20260507064504 51 50 1.0 2.0 0.00 0.01 0.00 83 1015.2
20260507063603 51 55 2.0 3.0 0.00 0.01 0.00 83 1015.1
20260507062705 51 61 2.0 3.0 0.00 0.01 0.00 83 1015.3
20260507061803 51 56 2.0 3.0 0.00 0.01 0.00 84 1015.1
20260507060903 51 45 2.0 2.0 0.00 0.01 0.00 85 1015.1
20260507060004 51 11 2.0 2.0 0.00 0.01 0.00 86 1014.9
20260507055403 50 8 2.0 4.0 0.00 0.01 0.00 86 1014.9
20260507054505 50 157 0.0 2.0 0.00 0.01 0.00 89 1014.6
20260507053603 50 0 0.0 0.0 0.00 0.01 0.00 91 1014.9
20260507052704 49 0 0.0 0.0 0.00 0.01 0.00 92 1014.7
20260507051803 49 0 0.0 0.0 0.00 0.01 0.00 92 1014.6
20260507050908 49 0 0.0 0.0 0.00 0.01 0.00 92 1014.5
20260507050004 49 0 0.0 0.0 0.00 0.01 0.00 92 1014.3
20260507045405 49 0 0.0 0.0 0.00 0.01 0.00 92 1014.5
20260507044504 49 0 0.0 0.0 0.00 0.01 0.00 92 1014.4
20260507043605 49 0 0.0 0.0 0.00 0.01 0.00 92 1014.2
20260507042705 49 0 0.0 0.0 0.00 0.01 0.00 91 1014.2
20260507041805 49 0 0.0 0.0 0.00 0.01 0.00 91 1014.1
20260507040906 49 0 0.0 0.0 0.00 0.01 0.00 91 1014.1
20260507040004 49 0 0.0 0.0 0.00 0.01 0.00 91 1013.9
20260507035403 49 0 0.0 0.0 0.00 0.01 0.00 91 1014.0
20260507034503 49 0 0.0 0.0 0.00 0.01 0.00 91 1013.8
20260507033818 49 0 0.0 0.0 0.00 0.01 0.00 91 1013.7
20260507032704 49 0 0.0 0.0 0.00 0.01 0.00 91 1013.7
20260507031804 49 0 0.0 0.0 0.00 0.01 0.00 91 1013.6
20260507030904 49 0 0.0 0.0 0.00 0.01 0.00 92 1013.7
20260507030213 49 0 0.0 0.0 0.00 0.01 0.00 91 1013.6
20260507025405 49 0 0.0 0.0 0.00 0.01 0.00 91 1013.6
20260507024716 49 0 0.0 0.0 0.00 0.01 0.00 91 1013.5
20260507023606 49 0 0.0 0.0 0.00 0.01 0.00 91 1013.5
20260507022703 49 0 0.0 0.0 0.00 0.01 0.00 91 1013.5
20260507022019 49 0 0.0 0.0 0.00 0.01 0.00 90 1013.3
20260507020905 49 0 0.0 0.0 0.00 0.01 0.00 89 1013.3
20260507020005 49 0 0.0 0.0 0.00 0.01 0.00 89 1013.2
20260507015405 49 0 0.0 0.0 0.00 0.01 0.00 89 1013.4
20260507014717 49 0 0.0 0.0 0.00 0.01 0.00 89 1013.1
20260507013608 49 0 0.0 0.0 0.00 0.01 0.00 89 1013.2
20260507012704 49 0 0.0 0.0 0.00 0.01 0.00 89 1013.1
20260507011805 49 0 0.0 0.0 0.00 0.01 0.00 88 1013.2
20260507010903 49 0 0.0 0.0 0.00 0.01 0.00 87 1013.0
20260507010005 49 0 0.0 0.0 0.00 0.01 0.00 87 1013.1
20260507005404 49 0 0.0 0.0 0.00 0.01 0.00 87 1012.9
20260507004505 49 0 0.0 0.0 0.00 0.01 0.00 86 1013.3
20260507003815 49 0 0.0 0.0 0.00 0.01 0.00 86 1013.1
20260507002918 50 0 0.0 0.0 0.00 0.01 0.00 86 1013.3
20260507001805 49 0 0.0 0.0 0.00 0.01 0.00 84 1012.9
20260507000904 49 0 0.0 0.0 0.00 0.01 0.00 83 1012.9
20260507000005 49 0 0.0 0.0 0.00 0.01 0.00 83 1013.1
20260506235403 49 0 0.0 0.0 0.00 0.01 0.00 83 1013.1
20260506234508 50 0 0.0 0.0 0.00 0.01 0.00 82 1013.2
20260506233603 50 0 0.0 0.0 0.00 0.01 0.00 80 1013.0
20260506232703 51 0 0.0 0.0 0.00 0.01 0.00 77 1012.7
20260506232016 51 0 0.0 0.0 0.00 0.01 0.00 76 1012.9
20260506230903 51 0 0.0 0.0 0.00 0.01 0.00 77 1012.7
20260506230004 51 0 0.0 0.0 0.00 0.01 0.00 77 1012.7
20260506225406 51 0 0.0 0.0 0.00 0.01 0.00 76 1012.8
20260506224504 51 0 0.0 0.0 0.00 0.01 0.00 75 1012.7
20260506223603 51 0 0.0 0.0 0.00 0.01 0.00 75 1012.5
20260506222705 51 0 0.0 0.0 0.00 0.01 0.00 75 1012.5
20260506221805 51 0 0.0 0.0 0.00 0.01 0.00 75 1012.5
20260506220905 51 0 0.0 0.0 0.00 0.01 0.00 75 1012.5
20260506220221 51 0 0.0 0.0 0.00 0.01 0.00 74 1012.4
20260506215408 51 67 0.0 1.0 0.00 0.01 0.01 74 1012.5
20260506214504 52 67 1.0 3.0 0.00 0.01 0.01 74 1012.4
20260506213603 52 60 2.0 3.0 0.00 0.01 0.01 73 1012.5
20260506212704 52 60 2.0 3.0 0.00 0.01 0.01 74 1012.5
20260506212017 52 60 3.0 3.0 0.00 0.01 0.01 74 1012.2
20260506211114 52 70 2.0 3.0 0.00 0.01 0.01 75 1012.2
20260506210005 52 75 3.0 4.0 0.00 0.01 0.01 75 1012.0
20260506205403 52 71 3.0 4.0 0.00 0.01 0.01 75 1012.2
20260506204505 52 68 2.0 4.0 0.00 0.01 0.01 74 1012.0
20260506203818 52 57 2.0 3.0 0.00 0.01 0.01 74 1012.0
20260506202706 52 62 3.0 4.0 0.00 0.01 0.01 74 1011.9
20260506201805 52 69 2.0 4.0 0.00 0.01 0.01 75 1011.8
20260506200905 52 54 4.0 5.0 0.00 0.01 0.01 74 1011.8
20260506200008 52 72 4.0 4.0 0.00 0.01 0.01 73 1011.8
20260506195404 52 72 4.0 7.0 0.00 0.01 0.01 73 1011.5
20260506194505 52 59 6.0 10.0 0.00 0.01 0.01 72 1011.7
20260506193603 52 63 6.0 10.0 0.00 0.01 0.01 72 1011.8
20260506192705 52 61 6.0 10.0 0.00 0.01 0.01 73 1011.6
20260506191805 52 69 6.0 10.0 0.00 0.01 0.01 73 1011.2
20260506190906 52 48 6.0 7.0 0.00 0.01 0.01 74 1011.3
20260506190005 52 51 5.0 5.0 0.00 0.01 0.01 74 1011.1
20260506185405 52 50 5.0 6.0 0.00 0.01 0.01 74 1010.9
20260506184722 52 46 5.0 8.0 0.00 0.01 0.01 75 1010.8
20260506183604 52 50 7.0 7.0 0.00 0.01 0.01 74 1010.7
20260506182705 53 50 6.0 7.0 0.00 0.01 0.01 74 1010.9
20260506181808 53 49 6.0 7.0 0.00 0.01 0.01 73 1010.6
20260506180903 54 57 6.0 7.0 0.00 0.01 0.01 71 1010.4
20260506180005 55 76 7.0 7.0 0.00 0.01 0.01 69 1010.3
20260506175405 55 64 6.0 7.0 0.00 0.01 0.01 66 1010.2
20260506174505 55 63 5.0 7.0 0.00 0.01 0.01 62 1010.1
20260506173603 56 51 5.0 7.0 0.00 0.01 0.01 62 1010.2
20260506172703 56 42 4.0 5.0 0.00 0.01 0.01 64 1009.8
20260506171803 56 56 5.0 7.0 0.00 0.01 0.01 66 1009.8
20260506170905 56 35 5.0 7.0 0.00 0.01 0.01 65 1009.5
20260506170010 56 63 5.0 7.0 0.00 0.01 0.01 64 1009.8
20260506165616 56 53 5.0 6.0 0.00 0.01 0.01 64 1009.6
20260506164718 57 43 6.0 8.0 0.00 0.01 0.01 66 1009.3
20260506163604 58 42 6.0 7.0 0.00 0.01 0.01 63 1009.3
20260506162705 59 36 5.0 7.0 0.00 0.01 0.01 62 1009.3
20260506161804 59 19 4.0 6.0 0.00 0.01 0.01 63 1009.1
20260506160903 58 25 5.0 7.0 0.00 0.01 0.01 63 1009.1
20260506160214 59 42 4.0 7.0 0.00 0.01 0.01 62 1009.2
20260506155616 58 40 5.0 6.0 0.00 0.01 0.01 61 1009.0
20260506154503 59 26 3.0 5.0 0.00 0.01 0.01 59 1009.4
20260506153603 59 3 3.0 5.0 0.00 0.01 0.01 60 1009.1
20260506152918 59 333 3.0 5.0 0.00 0.01 0.01 60 1009.4
20260506151804 58 28 5.0 6.0 0.00 0.01 0.01 59 1009.0
20260506150903 59 47 3.0 6.0 0.00 0.01 0.01 64 1009.2
20260506150225 59 96 4.0 5.0 0.00 0.01 0.01 67 1009.1
20260506145405 58 46 5.0 5.0 0.00 0.01 0.01 67 1009.3
20260506144505 58 31 5.0 6.0 0.00 0.01 0.01 66 1009.2
20260506143605 58 41 5.0 6.0 0.00 0.01 0.01 65 1009.2
20260506142704 59 24 4.0 5.0 0.00 0.01 0.01 64 1009.2
20260506141805 59 27 4.0 7.0 0.00 0.01 0.01 63 1009.0
20260506140905 59 35 6.0 7.0 0.00 0.01 0.01 60 1009.1
20260506140216 59 27 6.0 7.0 0.00 0.01 0.01 62 1009.2
20260506135404 60 348 5.0 7.0 0.00 0.01 0.01 60 1009.0
20260506134505 60 339 4.0 6.0 0.00 0.01 0.01 62 1009.3
20260506133609 60 39 6.0 8.0 0.00 0.01 0.01 61 1009.0
20260506132705 60 65 6.0 6.0 0.00 0.01 0.01 64 1008.9
20260506131804 59 50 6.0 7.0 0.00 0.01 0.01 66 1009.1
20260506130910 59 45 4.0 5.0 0.00 0.01 0.01 67 1009.0